Wind_Speed
5 6 6 6 5 5 6 6 8 8 7 7 5 5 7 8 7 6 7 7 7 7 7 7 6 6 5 5 5 5 6 7 7 8 8 9 9 9 9 9 9 9 9 9 9 9 9 9 9
4 3 3 4 4 4 6 8 8 9 9 10 9 7 6 7 7 6 7 6 7 7 7 6 6 6 6 5 5 6 7 7 8 8 9 9 9 9 9 10 9 9 10 10 10 9 9 9 9
5 3 2 2 1 3 6 8 12 12 12 13 14 11 9 8 8 8 8 7 7 7 7 7 6 7 6 6 6 7 8 8 9 9 10 10 10 10 10 10 10 10 11 11 11 11 10 10 10
7 4 1 1 1 3 5 8 12 13 14 16 17 16 13 10 10 10 9 8 7 7 7 7 7 7 7 8 8 9 9 10 10 10 10 11 11 11 11 11 12 12 12 12 12 12 12 12 12
9 6 4 3 3 3 5 7 11 13 17 20 21 18 15 13 11 12 10 9 9 8 8 8 8 9 9 10 10 10 11 11 11 11 12 12 12 12 13 13 14 14 14 14 14 14 14 14 14
12 9 6 4 4 2 3 7 13 16 20 22 22 19 15 14 14 13 12 10 9 9 9 9 10 10 11 11 11 12 12 12 12 13 13 14 14 14 15 15 15 15 15 16 16 16 15 15 15
14 10 6 6 6 4 3 6 15 19 22 23 23 20 17 16 15 13 12 11 11 10 9 9 10 11 12 13 13 13 13 13 14 14 15 15 16 16 16 16 17 17 17 17 17 17 17 17 18
17 13 9 11 11 9 7 8 14 19 22 24 24 21 20 19 15 13 12 13 12 11 10 11 12 12 13 14 14 14 14 15 15 16 17 17 17 18 18 19 19 19 19 19 19 20 20 19 20
20 15 12 15 16 14 12 13 17 20 23 24 25 23 23 22 18 14 13 14 14 13 13 12 13 13 14 14 15 15 16 17 18 18 19 19 19 20 20 21 21 22 21 21 21 22 22 22 22
22 18 17 20 20 18 16 15 18 23 24 25 26 26 25 24 22 17 17 17 15 14 13 14 14 14 15 17 18 18 19 20 20 21 21 21 22 22 23 23 24 24 24 23 23 23 24 24 25
24 20 21 23 23 21 19 18 21 24 26 27 28 27 27 28 25 22 20 19 17 17 16 16 16 17 18 19 21 21 22 23 23 23 24 24 24 25 26 26 26 26 26 26 26 26 25 25 26
25 23 24 26 26 24 22 22 24 26 28 29 30 30 31 29 29 26 23 21 19 18 17 18 19 20 21 22 23 24 24 25 26 27 27 27 27 28 29 29 29 29 29 29 29 28 28 28 28
24 24 24 26 27 25 24 23 26 28 29 30 31 31 32 31 30 27 24 20 20 20 22 22 22 22 24 25 25 25 27 28 29 29 29 30 30 30 30 31 31 31 31 31 31 30 30 30 29
21 21 20 21 24 24 24 24 26 28 29 30 31 30 30 31 31 30 28 25 24 24 24 25 24 24 25 27 28 29 30 31 31 32 33 32 32 33 33 33 33 33 33 33 32 32 31 31 30
16 16 16 18 21 22 22 23 24 26 27 28 28 28 30 30 30 30 28 26 25 26 26 27 28 28 29 29 30 31 31 33 34 34 34 34 35 35 34 34 34 33 34 33 33 32 33 32 31
10 12 14 15 18 19 20 21 23 24 25 25 25 26 27 28 28 27 27 26 26 27 27 28 28 29 30 31 32 33 34 35 36 36 36 37 37 37 36 35 35 35 35 34 34 34 33 32 31
8 9 11 13 15 16 18 20 20 22 23 24 23 24 24 25 25 25 25 25 25 26 27 27 28 29 30 31 33 34 35 36 38 39 39 39 40 39 38 36 37 36 36 35 35 34 33 32 31
7 8 9 11 13 15 18 19 20 22 22 23 22 22 23 23 23 22 23 23 24 25 26 27 29 29 30 32 33 35 37 38 39 40 40 41 40 40 39 38 37 37 36 35 35 34 34 33 31
7 6 6 9 12 16 18 20 21 22 22 22 21 21 20 19 20 20 21 22 23 24 26 28 29 30 31 32 34 36 38 39 40 41 41 41 41 41 41 40 39 38 36 35 35 35 35 34 32
7 8 8 9 9 13 16 18 19 21 21 19 19 19 16 16 16 18 19 21 22 24 26 27 28 30 32 34 35 37 39 40 41 42 42 43 43 42 42 41 40 39 38 37 36 36 35 34 33
7 8 9 9 9 11 15 18 19 17 19 17 15 13 11 11 13 15 17 19 20 22 24 26 28 31 33 34 36 37 39 41 42 43 43 43 43 42 42 41 40 40 39 38 38 37 36 36 35
6 7 7 9 11 13 13 13 13 12 11 10 9 9 8 9 11 13 15 18 20 22 24 27 29 31 33 35 37 38 40 41 42 43 43 43 42 42 41 40 40 40 39 39 38 38 37 37 36
6 8 8 8 9 10 10 9 7 6 7 7 7 6 5 8 10 13 15 18 20 22 24 26 28 31 33 35 36 38 39 40 41 42 42 42 41 41 41 40 38 38 38 38 37 37 37 36 37
8 8 8 8 9 10 8 7 4 3 5 5 5 6 8 10 12 14 17 19 21 23 25 28 30 31 33 35 36 37 38 39 39 40 40 40 39 39 39 39 37 37 37 37 37 37 37 37 37
8 9 8 8 9 11 11 11 10 9 8 8 8 10 11 12 14 17 20 23 25 27 29 31 32 34 35 36 37 38 38 38 39 38 38 38 38 37 38 38 37 37 36 36 36 36 37 37 38
7 8 8 9 9 9 10 11 11 10 9 9 11 12 14 16 19 22 24 26 29 31 33 34 36 37 38 38 39 39 39 39 39 39 39 39 39 38 38 38 38 38 37 37 37 37 37 37 38
7 7 8 8 8 8 9 10 12 11 11 13 14 16 18 21 23 26 28 30 32 35 36 38 39 39 39 39 39 39 39 39 39 39 39 40 40 40 40 40 40 40 40 39 39 39 39 38 39
8 8 8 8 9 9 10 12 15 14 15 16 17 20 22 24 27 29 31 33 35 37 39 40 41 41 41 40 40 39 39 39 40 40 40 40 40 41 42 42 43 43 43 43 43 42 42 41 41
7 8 9 9 11 12 14 16 17 17 18 20 22 24 26 28 29 31 33 35 38 39 41 42 42 42 41 41 41 40 40 41 41 41 41 41 42 42 43 43 45 46 46 47 46 46 46 45 45
6 9 10 11 12 14 17 18 19 21 23 24 25 26 27 28 30 32 35 38 39 40 41 42 42 41 41 41 41 41 41 42 42 42 42 42 42 43 43 44 45 46 47 48 48 48 48 48 48
Wind_Direction
61 80 84 73 54 32 18 24 29 21 16 10 1 347 0 3 358 351 345 349 346 351 345 334 328 328 328 328 332 338 344 347 346 346 346 345 345 344 342 342 344 345 347 348 349 350 352 355 356
29 52 74 74 46 9 14 16 9 3 359 360 352 341 345 351 344 341 341 345 351 350 342 331 320 319 317 318 323 329 332 333 334 333 333 331 330 331 331 329 330 331 332 332 333 334 333 335 337
346 357 51 79 76 22 21 3 348 342 338 340 336 330 325 331 330 329 331 335 344 342 331 324 315 309 307 307 311 318 324 326 326 326 325 324 322 322 321 319 319 320 319 319 319 319 318 317 317
322 320 312 170 233 359 8 353 331 325 324 325 326 325 318 318 319 320 322 324 325 325 319 314 309 303 300 301 305 309 314 316 318 317 317 316 314 313 312 309 307 306 306 305 305 305 305 303 302
308 301 276 252 282 329 350 337 308 304 310 313 315 319 316 317 318 315 309 310 310 309 307 305 302 299 299 299 302 303 305 306 308 309 310 310 308 306 305 303 301 300 297 295 295 295 293 292 291
299 294 279 271 268 293 341 316 297 299 301 303 307 312 314 316 317 314 307 305 304 301 302 301 296 295 297 298 299 300 299 299 300 302 305 305 304 304 302 301 299 297 295 293 291 289 286 284 282
290 286 261 225 200 188 191 274 283 288 292 294 298 303 305 307 310 309 306 307 304 298 297 297 296 296 295 295 295 296 296 296 298 300 301 300 299 300 301 300 299 296 294 291 288 284 281 280 277
283 276 244 213 197 193 206 240 264 275 281 286 292 297 301 301 302 301 298 299 296 293 288 288 292 293 292 292 293 294 296 297 298 299 299 299 298 297 297 298 299 297 295 292 289 283 279 278 275
278 267 235 213 205 203 213 232 253 265 273 279 285 291 297 297 297 294 290 291 286 286 284 281 285 289 290 292 293 293 295 296 297 297 299 298 298 297 296 296 298 298 296 293 291 287 281 278 275
270 258 230 219 217 216 223 235 250 262 269 274 280 287 291 294 292 289 287 284 277 283 282 282 283 284 288 291 293 293 294 294 295 296 297 298 298 298 297 294 294 296 295 294 293 292 287 281 277
262 249 232 222 221 225 231 237 247 257 264 271 278 283 287 289 290 288 287 279 280 284 281 281 281 284 287 288 290 290 293 294 294 295 296 297 297 297 296 293 292 293 293 293 291 291 289 284 280
256 244 231 222 223 226 232 238 245 254 262 269 275 280 285 288 288 285 287 282 283 279 279 279 281 282 284 285 287 288 291 294 293 291 292 293 293 293 292 291 290 290 290 289 287 288 286 285 281
253 244 232 224 224 228 234 239 247 253 259 265 271 278 284 287 290 289 289 284 284 285 287 283 280 282 284 284 286 288 291 293 292 291 292 292 291 291 289 289 288 287 285 285 286 287 285 284 281
248 243 234 226 223 227 234 240 247 254 260 265 271 277 282 285 288 291 291 288 288 290 290 288 288 288 288 288 288 289 289 289 291 291 290 292 293 293 289 286 285 285 284 283 281 281 281 280 279
238 233 225 220 219 224 234 239 244 252 257 263 269 275 279 284 289 290 291 292 292 291 291 290 292 291 290 289 289 289 290 290 290 291 292 291 292 293 292 290 288 287 286 284 280 279 279 278 276
216 213 209 215 220 225 234 238 244 251 256 262 269 275 279 285 289 291 291 290 289 289 290 290 290 290 290 290 290 291 293 292 291 292 292 292 293 292 291 291 290 289 287 285 282 280 278 278 274
196 204 207 215 223 226 236 245 251 254 258 263 269 275 282 285 288 290 291 290 289 289 290 290 291 291 290 290 290 290 290 290 291 291 292 292 292 291 290 288 288 289 286 283 281 280 277 277 274
211 216 218 219 225 233 242 248 254 258 258 263 268 272 279 282 284 288 289 290 290 291 292 292 292 293 292 291 291 290 290 291 291 291 291 291 290 290 288 287 287 286 284 280 278 277 276 276 272
247 260 263 252 241 238 245 253 259 263 262 263 268 270 273 278 283 287 288 289 290 291 292 293 293 294 294 293 293 292 292 291 291 291 290 290 289 288 288 287 286 284 282 280 278 277 276 274 271
274 271 285 276 266 260 265 266 273 271 264 262 261 262 265 276 285 288 289 291 293 295 296 296 296 296 295 295 294 293 293 292 291 290 289 288 288 287 286 285 284 282 280 278 276 275 273 271 269
300 282 290 302 292 287 292 286 283 280 273 266 263 262 263 276 286 292 295 297 298 298 298 298 297 296 296 295 295 294 293 293 292 291 290 289 287 286 284 282 280 279 277 276 274 273 271 269 266
326 312 312 322 325 316 303 301 301 296 298 280 270 278 280 285 296 301 303 305 305 303 301 300 299 298 298 297 296 295 294 293 293 292 291 289 288 286 284 281 279 278 276 274 272 271 268 266 264
354 348 346 337 332 331 314 311 305 303 308 307 297 295 313 311 312 312 311 309 307 305 303 303 301 300 299 298 297 296 295 294 293 292 290 289 287 286 284 283 280 277 275 274 271 269 266 264 262
354 357 0 357 357 358 355 354 12 348 341 331 334 344 344 330 325 322 319 316 314 312 311 309 307 306 305 304 302 300 299 297 296 294 292 290 288 287 285 283 280 277 275 272 271 268 265 263 261
350 350 350 359 7 21 23 31 43 45 37 19 358 348 339 331 328 326 326 324 322 320 318 317 315 314 312 310 308 306 304 301 299 297 295 293 290 288 286 284 282 279 276 274 271 269 266 263 260
353 345 346 350 352 2 11 22 24 22 12 358 350 343 340 337 334 333 332 329 327 325 323 322 320 318 316 314 312 309 307 305 302 300 298 295 292 290 287 285 283 281 278 275 272 270 267 263 260
350 346 348 345 339 340 350 357 359 3 359 352 347 344 343 340 338 336 333 331 329 327 325 324 321 319 317 315 313 311 308 306 304 302 299 296 293 290 288 285 283 281 278 276 273 270 267 264 260
342 345 346 341 336 336 338 338 347 358 356 351 347 345 343 340 338 336 333 331 329 327 325 324 323 321 319 316 314 312 309 307 305 302 299 296 293 290 288 286 283 281 279 277 274 271 268 265 261
339 340 341 339 335 334 333 337 346 352 351 349 347 345 340 337 335 333 331 329 328 327 326 325 323 321 319 318 316 314 312 309 307 304 300 297 294 291 289 287 284 282 280 277 274 271 267 264 260
344 343 340 340 336 336 336 340 346 350 349 347 344 339 333 331 330 329 329 329 328 327 326 325 323 322 321 319 317 315 314 311 308 306 302 299 296 293 291 289 286 283 280 277 274 271 267 263 259
Height
5931 5930 5930 5930 5931 5930 5928 5927 5927 5927 5928 5928 5928 5927 5927 5926 5926 5927 5925 5923 5922 5921 5920 5920 5920 5919 5919 5918 5918 5917 5917 5916 5916 5915 5915 5914 5913 5913 5912 5911 5910 5909 5909 5908 5907 5907 5906 5905 5904
5931 5930 5930 5930 5930 5929 5928 5927 5926 5925 5926 5927 5927 5927 5926 5925 5924 5924 5923 5922 5921 5920 5920 5920 5919 5919 5919 5918 5918 5917 5916 5916 5915 5914 5914 5913 5912 5912 5911 5910 5909 5909 5908 5907 5907 5906 5905 5905 5904
5930 5929 5930 5929 5929 5929 5927 5926 5925 5924 5923 5924 5926 5926 5925 5924 5923 5922 5921 5920 5920 5920 5920 5919 5919 5918 5918 5917 5917 5916 5915 5915 5914 5913 5912 5912 5911 5910 5910 5909 5908 5908 5907 5906 5906 5905 5904 5904 5903
5930 5929 5928 5929 5928 5926 5925 5924 5924 5923 5922 5922 5923 5924 5923 5923 5921 5920 5920 5919 5919 5919 5918 5918 5918 5917 5917 5916 5916 5915 5914 5913 5912 5912 5911 5910 5909 5908 5907 5907 5906 5906 5905 5904 5904 5903 5902 5902 5902
5929 5928 5928 5927 5926 5924 5922 5921 5921 5921 5921 5921 5922 5922 5922 5921 5919 5918 5918 5917 5917 5917 5917 5917 5916 5916 5915 5915 5914 5913 5912 5911 5911 5910 5909 5908 5907 5906 5905 5904 5904 5903 5902 5902 5901 5900 5900 5900 5899
5927 5927 5927 5926 5924 5921 5919 5919 5919 5919 5919 5919 5919 5920 5920 5920 5918 5917 5916 5915 5915 5915 5915 5915 5914 5913 5913 5912 5912 5911 5910 5909 5908 5907 5906 5905 5904 5903 5902 5901 5900 5899 5899 5898 5898 5897 5896 5896 5896
5925 5925 5925 5924 5921 5919 5917 5917 5916 5916 5916 5916 5917 5917 5917 5917 5916 5914 5914 5913 5913 5913 5913 5912 5912 5911 5910 5910 5909 5908 5907 5906 5905 5904 5903 5902 5901 5900 5899 5898 5897 5896 5895 5894 5894 5893 5892 5892 5892
5921 5923 5922 5920 5918 5916 5915 5914 5914 5913 5913 5913 5914 5914 5913 5913 5913 5913 5912 5911 5910 5910 5910 5910 5909 5908 5907 5906 5906 5905 5904 5902 5901 5900 5899 5898 5897 5895 5894 5894 5893 5892 5891 5890 5889 5889 5888 5888 5887
5916 5919 5918 5916 5914 5913 5911 5911 5911 5910 5910 5910 5910 5911 5910 5910 5910 5911 5910 5909 5908 5907 5908 5907 5906 5905 5904 5903 5902 5901 5900 5899 5897 5896 5895 5893 5892 5891 5890 5889 5888 5887 5886 5885 5884 5884 5883 5882 5882
5910 5913 5913 5912 5910 5909 5907 5908 5907 5907 5907 5907 5906 5906 5906 5906 5906 5907 5907 5906 5903 5903 5903 5903 5902 5901 5900 5899 5898 5897 5895 5894 5893 5892 5890 5889 5887 5886 5885 5883 5882 5881 5880 5880 5879 5878 5877 5877 5876
5904 5906 5907 5906 5905 5904 5903 5904 5904 5903 5903 5903 5903 5902 5901 5901 5902 5901 5901 5900 5898 5898 5899 5898 5897 5896 5895 5894 5893 5892 5890 5889 5888 5887 5885 5883 5882 5880 5879 5878 5876 5875 5874 5873 5873 5872 5871 5870 5869
5897 5899 5900 5900 5899 5899 5899 5900 5900 5899 5899 5899 5899 5897 5897 5896 5896 5897 5895 5894 5893 5894 5893 5892 5892 5891 5889 5888 5887 5886 5885 5884 5882 5881 5879 5877 5876 5874 5873 5871 5870 5869 5868 5867 5865 5865 5864 5863 5862
5890 5891 5892 5893 5893 5894 5894 5896 5895 5895 5895 5894 5894 5893 5892 5891 5890 5890 5890 5889 5888 5888 5888 5888 5886 5885 5884 5882 5881 5880 5878 5877 5875 5873 5872 5871 5868 5866 5865 5864 5863 5862 5861 5859 5858 5857 5857 5855 5854
5884 5885 5887 5888 5889 5889 5890 5890 5891 5890 5890 5890 5890 5889 5888 5888 5887 5885 5885 5884 5884 5883 5883 5881 5879 5879 5878 5876 5874 5873 5872 5871 5869 5867 5865 5863 5861 5859 5858 5856 5855 5854 5852 5851 5851 5850 5849 5848 5847
5879 5881 5883 5883 5884 5885 5886 5886 5885 5885 5885 5886 5886 5885 5885 5883 5882 5881 5880 5879 5879 5878 5877 5875 5874 5873 5871 5869 5868 5866 5864 5863 5861 5858 5857 5855 5853 5851 5849 5847 5846 5845 5844 5843 5842 5841 5841 5840 5840
5876 5877 5878 5879 5879 5880 5882 5881 5881 5881 5882 5882 5882 5881 5880 5879 5877 5876 5875 5875 5874 5872 5871 5870 5869 5867 5865 5863 5860 5858 5857 5855 5853 5851 5849 5847 5845 5843 5841 5839 5838 5836 5835 5834 5833 5832 5832 5831 5831
5873 5874 5875 5876 5876 5877 5877 5877 5878 5878 5879 5879 5878 5878 5876 5875 5873 5872 5871 5870 5869 5867 5866 5864 5863 5861 5859 5857 5855 5852 5850 5847 5845 5843 5841 5838 5836 5834 5832 5830 5829 5828 5827 5825 5824 5823 5823 5823 5822
5872 5872 5872 5872 5873 5873 5873 5873 5874 5874 5874 5874 5874 5874 5873 5872 5870 5868 5867 5865 5864 5862 5860 5859 5857 5855 5852 5850 5848 5845 5842 5839 5836 5834 5832 5830 5827 5825 5823 5821 5820 5819 5817 5816 5815 5815 5814 5814 5814
5870 5870 5870 5870 5870 5870 5870 5870 5870 5869 5869 5870 5870 5870 5869 5868 5867 5865 5863 5861 5859 5857 5855 5853 5851 5848 5846 5843 5840 5836 5833 5831 5828 5825 5823 5820 5818 5815 5814 5812 5810 5809 5808 5807 5806 5805 5805 5805 5805
5868 5868 5868 5867 5867 5868 5868 5867 5866 5865 5864 5864 5864 5865 5865 5864 5863 5862 5860 5857 5855 5852 5850 5847 5845 5842 5839 5835 5832 5829 5825 5822 5819 5816 5813 5810 5808 5806 5804 5802 5800 5799 5798 5797 5797 5796 5796 5796 5796
5867 5867 5867 5866 5866 5866 5865 5863 5862 5860 5860 5859 5860 5861 5861 5860 5859 5858 5856 5854 5851 5848 5845 5842 5839 5835 5832 5828 5824 5820 5816 5812 5808 5805 5802 5799 5797 5795 5793 5791 5790 5788 5788 5787 5786 5786 5786 5787 5787
5866 5866 5865 5864 5863 5863 5862 5860 5859 5857 5857 5857 5858 5857 5857 5857 5856 5855 5852 5850 5847 5844 5840 5837 5833 5829 5824 5820 5816 5812 5807 5803 5799 5795 5791 5788 5785 5783 5781 5780 5778 5777 5776 5776 5775 5775 5776 5776 5777
5866 5865 5863 5862 5862 5861 5859 5859 5859 5857 5856 5856 5855 5854 5853 5853 5852 5851 5848 5845 5842 5839 5835 5831 5827 5822 5817 5812 5808 5803 5798 5793 5789 5784 5781 5777 5774 5771 5769 5767 5767 5766 5765 5764 5764 5764 5765 5766 5767
5865 5864 5863 5862 5862 5860 5858 5857 5856 5855 5855 5854 5854 5852 5851 5850 5848 5846 5843 5840 5837 5832 5828 5824 5819 5814 5809 5803 5798 5793 5788 5783 5778 5774 5770 5766 5763 5760 5757 5755 5754 5754 5753 5753 5752 5753 5753 5754 5756
5864 5864 5864 5863 5861 5860 5858 5855 5855 5855 5854 5853 5852 5850 5849 5847 5844 5842 5838 5834 5830 5825 5821 5816 5810 5804 5799 5793 5788 5782 5777 5772 5768 5763 5759 5755 5752 5749 5746 5744 5743 5742 5741 5741 5741 5741 5742 5743 5744
5864 5864 5863 5862 5860 5859 5857 5855 5855 5854 5853 5851 5850 5848 5845 5842 5839 5835 5832 5827 5823 5818 5812 5807 5801 5795 5789 5784 5778 5772 5767 5762 5757 5753 5748 5745 5741 5738 5736 5733 5731 5730 5729 5729 5729 5729 5730 5731 5732
5864 5862 5861 5860 5858 5857 5855 5854 5853 5852 5850 5848 5846 5843 5840 5837 5833 5829 5825 5821 5816 5810 5805 5799 5793 5787 5781 5775 5769 5763 5757 5752 5747 5742 5738 5734 5730 5727 5724 5721 5719 5718 5717 5716 5716 5716 5717 5718 5720
5863 5861 5860 5859 5856 5855 5853 5852 5851 5849 5847 5844 5841 5838 5835 5832 5828 5824 5819 5815 5809 5804 5797 5791 5784 5778 5772 5766 5760 5754 5748 5743 5737 5732 5727 5723 5719 5715 5711 5709 5706 5704 5702 5702 5702 5702 5703 5704 5706
5862 5861 5858 5856 5854 5853 5851 5852 5848 5846 5843 5840 5837 5834 5830 5827 5823 5819 5815 5810 5804 5797 5790 5783 5776 5770 5763 5757 5750 5744 5738 5733 5727 5721 5716 5711 5707 5702 5698 5695 5692 5689 5687 5686 5686 5686 5687 5689 5691
5860 5858 5857 5855 5853 5851 5849 5850 5844 5842 5839 5836 5833 5830 5827 5824 5820 5815 5810 5804 5798 5791 5784 5777 5769 5762 5755 5748 5742 5735 5729 5722 5716 5710 5704 5698 5694 5689 5685 5681 5677 5674 5671 5669 5668 5669 5670 5672 5674